Tracking 19794 objects as of 22-Jul-2019
HD Live streaming from Space Station
objects crossing your sky now

LEMUR 2 ARTFISCHER

Track LEMUR 2 ARTFISCHER now!
10-day predictions
LEMUR 2 ARTFISCHER is classified as:


NORAD ID: 42881
Int'l Code: 2017-042BJ
Perigee: 447.3 km
Apogee: 466.0 km
Inclination: 96.9 °
Period: 93.6 minutes
Semi major axis: 6827 km
RCS: Unknown
Launch date: July 14, 2017
Source: United States (US)
Launch site: TYURATAM MISSILE AND SPACE COMPLEX (TTMTR)
aabbcc
Your satellite tracking list
Your tracking list is empty




NASA's NSSDC Master Catalog

Two Line Element Set (TLE):
1 42881U 17042BJ  19202.87776740 +.00001922 +00000-0 +51870-4 0  9996
2 42881 096.9358 083.4631 0013701 094.9936 265.2875 15.38835587113027
Source of the keplerian elements: AFSPC